[[{"header":{"parameterUnit":"m.s-1","parameterCategory":1,"la1":30.2991,"la2":30.254,"lo1":-89.0895,"lo2":-89.0444,"dy":0.0017,"dx":0.0017,"nx":28,"ny":28,"refTime":"2024-04-07T09:00:00:Z","depth":0,"parameterNumber":2,"parameterNumberName":"U-component_of_WINDS"},"data":[0,0,0,0,0,0,0,0,0,0,0,0,0,0,0,0,0,0,0,0,0,0,0,0,0,0,0,0,0,0,0,0,0,0,0,0,0,0,0,0,0,0,0,0,0,0,0,0,0,0,0,0,0,0,0,0,0,0,-4.4759,-4.476,0,-4.4854,-4.4856,-4.4857,-4.488,-4.4879,-4.4879,-4.4878,-4.4972,-4.4975,-4.4978,0,0,0,0,0,0,0,0,0,0,0,0,0,-4.4595,-4.4598,-4.4759,-4.4761,-4.4762,-4.4854,-4.4856,-4.4857,-4.488,-4.4879,-4.4878,-4.4878,-4.4971,-4.4974,-4.4978,0,0,0,0,0,0,0,0,0,0,0,0,0,-4.4676,-4.4599,-4.4759,-4.4784,-4.4788,-4.4854,-4.4856,-4.4857,-4.488,-4.4879,-4.4878,-4.4877,-4.4969,-4.4974,-4.4978,-4.5025,0,0,-4.4992,-4.4994,0,0,0,0,0,0,0,0,-4.4671,-4.4682,-4.478,-4.4783,-4.4787,-4.4854,-4.4832,-4.4913,-4.488,-4.4845,-4.4878,-4.4877,-4.4933,-4.4941,-4.496,-4.503,-4.5034,-4.4993,-4.4996,-4.4998,-4.4999,0,0,0,0,0,0,0,-4.4666,-4.4678,-4.4797,-4.4781,-4.4785,-4.479,-4.4801,-4.4848,-4.4893,-4.4848,-4.485,-4.4861,-4.4935,-4.4956,-4.4963,-4.5035,-4.4993,-4.4997,-4.5,-4.5001,-4.5147,-4.5149,0,0,0,0,0,0,-4.4656,-4.4673,-4.4794,-4.48,-4.4726,-4.4794,-4.4806,-4.4833,-4.4892,-4.4901,-4.4862,-4.4862,-4.4948,-4.4957,-4.4966,-4.5024,-4.4998,-4.5002,-4.5005,-4.5146,-4.5148,-4.5149,0,0,0,0,0,0,-4.4652,-4.4667,-4.479,-4.4737,-4.4753,-4.4798,-4.4829,-4.4836,-4.4857,-4.4903,-4.4911,-4.4875,-4.4948,-4.496,-4.5011,-4.5028,-4.5004,-4.5008,-4.5145,-4.5147,-4.5148,-4.5141,0,0,0,0,0,0,-4.4648,-4.4665,-4.4684,-4.4737,-4.4756,-4.4834,-4.483,-4.4838,-4.4865,-4.4866,-4.4917,-4.4925,-4.4948,-4.5004,-4.5015,-4.5034,-4.5012,-4.5144,-4.5146,-4.5148,-4.514,-4.5142,-4.5144,0,0,0,0,0,-4.4642,-4.4677,-4.4685,-4.4699,-4.478,-4.4835,-4.4845,-4.4872,-4.4867,-4.4885,-4.4915,-4.4923,-4.5025,-4.5009,-4.5022,-4.5042,-4.5143,-4.5145,-4.5148,-4.5139,-4.5142,-4.5144,0,0,0,0,0,0,-4.4623,-4.4685,-4.4693,-4.4748,-4.4786,-4.4838,-4.4863,-4.4874,-4.4914,-4.4913,-4.4944,-4.4955,-4.5004,-4.5029,-4.501,-4.5091,-4.5083,-4.5089,-4.5072,-4.5076,-4.5078,-4.507,-4.5016,0,0,0,0,0,-4.4626,-4.4665,-4.4717,-4.476,-4.4779,-4.4817,-4.4842,-4.486,-4.49,-4.4916,-4.4949,-4.4987,-4.5028,-4.5053,-4.5093,-4.5145,-4.5156,-4.5165,-4.5167,-4.5169,-4.5172,-4.5201,-4.5206,-4.5157,-4.5157,-4.5157,0,0,-4.463,-4.4669,-4.4692,-4.4757,-4.4788,-4.4828,-4.4831,-4.4872,-4.4902,-4.4922,-4.4972,-4.4998,-4.5042,-4.5094,-4.5118,-4.5116,-4.5189,-4.5172,-4.5173,-4.5176,-4.5204,-4.5209,-4.5213,-4.5159,-4.5159,-4.5158,0,0,-4.4659,-4.4693,-4.4732,-4.4765,-4.4813,-4.4839,-4.4848,-4.49,-4.4918,-4.497,-4.4986,-4.5021,-4.509,-4.5121,-4.5145,-4.5188,-4.5197,-4.52,-4.5211,-4.5238,-4.5242,-4.5246,-4.526,-4.5265,-4.5204,-4.5204,-4.5204,0,-4.4658,-4.472,-4.4751,-4.4792,-4.482,-4.4842,-4.4881,-4.4911,-4.4969,-4.4987,-4.4984,-4.5072,-4.5104,-4.5162,-4.5173,-4.5193,-4.5204,-4.5193,-4.524,-4.5243,-4.5247,-4.5261,-4.5266,-4.5204,-4.5204,-4.5204,-4.5204,0,-4.4716,-4.4759,-4.4784,-4.4842,-4.4873,-4.4913,-4.4949,-4.4976,-4.4992,-4.5018,-4.507,-4.5109,-4.5157,-4.5173,-4.5188,-4.5234,-4.5231,-4.5234,-4.5226,-4.5251,-4.5264,-4.527,-4.5204,-4.5204,-4.5204,-4.5204,0,0,-4.4734,-4.4809,-4.4818,-4.4844,-4.49,-4.4933,-4.4974,-4.5022,-4.5045,-4.5085,-4.512,-4.5179,-4.5182,-4.521,-4.5229,-4.5254,-4.5284,-4.5253,-4.5255,-4.5256,-4.5336,-4.5332,-4.5338,-4.5291,-4.5292,-4.5293,-4.5332,0,-4.4768,-4.4843,-4.4873,-4.4933,-4.4972,-4.4995,-4.5031,-4.5068,-4.5094,-4.5131,-4.5159,-4.52,-4.5202,-4.5219,-4.5245,-4.5275,-4.53,-4.5273,-4.5322,-4.5323,-4.5308,-4.5345,-4.5341,-4.5375,-4.5337,-4.5338,-4.5339,0,-4.4818,-4.486,-4.4924,-4.4976,-4.4994,-4.5025,-4.5072,-4.5107,-4.5151,-4.5168,-4.52,-4.5218,-4.5262,-4.5254,-4.5314,-4.5295,-4.5317,-4.5335,-4.5337,-4.5341,-4.5331,-4.5348,-4.5387,-4.5391,-4.5348,-4.5347,-4.5346,0,-4.4822,-4.4895,-4.4943,-4.4965,-4.5027,-4.5049,-4.5075,-4.5118,-4.5145,-4.5187,-4.5204,-4.525,-4.5274,-4.5308,-4.5338,-4.533,-4.5395,-4.539,-4.5409,-4.5408,-4.542,-4.5418,-4.5461,-4.5437,-4.5437,-4.5437,-4.5437,0,-4.4857,-4.4895,-4.4946,-4.4975,-4.5019,-4.5053,-4.5095,-4.5123,-4.5161,-4.5196,-4.5218,-4.525,-4.5289,-4.5325,-4.5349,-4.5395,-4.5406,-4.542,-4.5425,-4.5417,-4.5415,-4.543,-4.5428,-4.5439,-4.5438,-4.5438,-4.5438,0,-4.4868,-4.4904,-4.4958,-4.5013,-4.5027,-4.5057,-4.5103,-4.5132,-4.516,-4.5204,-4.5216,-4.5259,-4.5304,-4.5338,-4.5396,-4.5412,-4.5459,-4.5466,-4.5445,-4.5447,-4.5464,-4.5461,-4.5517,-4.5525,-4.5497,-4.5498,-4.5498,0,-4.4886,-4.4917,-4.4975,-4.5001,-4.5027,-4.5068,-4.5096,-4.5131,-4.516,-4.5212,-4.5235,-4.5282,-4.532,-4.539,-4.5426,-4.5471,-4.5478,-4.5494,-4.5484,-4.5475,-4.5476,-4.5473,-4.5476,-4.5494,-4.5495,-4.5495,-4.5495,0,-4.4915,-4.4932,-4.4972,-4.5019,-4.5053,-4.5091,-4.513,-4.515,-4.5191,-4.5222,-4.5269,-4.5299,-4.5359,-4.5404,-4.5453,-4.5479,-4.5494,-4.5498,-4.5505,-4.5495,-4.5481,-4.5488,-4.5446,-4.5496,-4.5496,-4.5496,-4.5496,-4.5496,-4.493,-4.4957,-4.5003,-4.5048,-4.5081,-4.5117,-4.5147,-4.5179,-4.5219,-4.5271,-4.5289,-4.5337,-4.538,-4.5447,-4.5474,-4.5512,-4.5512,-4.5522,-4.5524,-4.5525,-4.5524,-4.5477,-4.5521,-4.5521,-4.5521,-4.5521,-4.5521,0,-4.4958,-4.4989,-4.503,-4.5084,-4.5119,-4.5132,-4.5176,-4.5204,-4.5246,-4.5285,-4.5324,-4.5377,-4.5422,-4.5462,-4.5509,-4.5531,-4.5539,-4.5542,-4.554,-4.5545,-4.5522,-4.5511,-4.5535,-4.5535,-4.5535,-4.5535,-4.5535,-4.5535,-4.4977,-4.5024,-4.5047,-4.5111,-4.5142,-4.5189,-4.5213,-4.5246,-4.5278,-4.5337,-4.5375,-4.5402,-4.5442,-4.5492,-4.5533,-4.5544,-4.5559,-4.556,-4.5573,-4.5549,-4.5547,-4.5545,-4.5535,-4.5564,-4.5564,-4.5593,-4.5593,-4.5594]},{"header":{"parameterUnit":"m.s-1","parameterCategory":1,"la1":30.2991,"la2":30.254,"lo1":-89.0895,"lo2":-89.0444,"dy":0.0017,"dx":0.0017,"nx":28,"ny":28,"refTime":"2024-04-07T09:00:00:Z","depth":0,"parameterNumber":3,"parameterNumberName":"V-component_of_WINDS"},"data":[0,0,0,0,0,0,0,0,0,0,0,0,0,0,0,0,0,0,0,0,0,0,0,0,0,0,0,0,0,0,0,0,0,0,0,0,0,0,0,0,0,0,0,0,0,0,0,0,0,0,0,0,0,0,0,0,0,0,3.684,3.6839,0,3.6804,3.6804,3.6803,3.6831,3.6832,3.6834,3.6835,3.6795,3.6792,3.679,0,0,0,0,0,0,0,0,0,0,0,0,0,3.693,3.6928,3.684,3.6839,3.6839,3.6804,3.6804,3.6803,3.6831,3.6833,3.6834,3.6835,3.6795,3.6793,3.679,0,0,0,0,0,0,0,0,0,0,0,0,0,3.6892,3.6927,3.684,3.6849,3.6849,3.6804,3.6804,3.6803,3.6831,3.6833,3.6834,3.6836,3.6796,3.6793,3.679,3.6733,0,0,3.678,3.6778,0,0,0,0,0,0,0,0,3.6894,3.6889,3.6848,3.6848,3.6848,3.6824,3.6821,3.678,3.683,3.6838,3.6835,3.6837,3.6803,3.6799,3.6788,3.6731,3.673,3.6779,3.6777,3.6776,3.6775,0,0,0,0,0,0,0,3.6897,3.689,3.6826,3.6847,3.6847,3.6854,3.685,3.6813,3.681,3.6837,3.6839,3.6835,3.6803,3.6791,3.6787,3.6729,3.6779,3.6777,3.6775,3.6773,3.6627,3.6625,0,0,0,0,0,0,3.6899,3.6892,3.6827,3.6825,3.6876,3.6851,3.6847,3.683,3.6811,3.681,3.6833,3.6836,3.6796,3.6791,3.6786,3.6721,3.6776,3.6773,3.6771,3.6629,3.6626,3.6624,0,0,0,0,0,0,3.6901,3.6893,3.6828,3.6859,3.6851,3.6847,3.6828,3.6828,3.6817,3.6808,3.6807,3.6822,3.6797,3.6791,3.6747,3.6719,3.6771,3.6768,3.6631,3.6628,3.6625,3.6588,0,0,0,0,0,0,3.6903,3.6893,3.6872,3.6858,3.685,3.679,3.6826,3.6826,3.6811,3.6815,3.6797,3.6796,3.6798,3.6752,3.6744,3.6716,3.6766,3.6633,3.663,3.6626,3.6591,3.6584,3.6577,0,0,0,0,0,3.6906,3.6861,3.6871,3.6863,3.6823,3.6788,3.6783,3.6788,3.6809,3.6788,3.6782,3.6796,3.6724,3.6747,3.6738,3.6709,3.6635,3.6631,3.6626,3.6594,3.6585,3.6577,0,0,0,0,0,0,3.687,3.686,3.687,3.6819,3.6805,3.6793,3.6766,3.6778,3.6756,3.676,3.6766,3.6762,3.6716,3.6708,3.6734,3.6655,3.6683,3.6676,3.6661,3.6653,3.6646,3.6649,3.6763,0,0,0,0,0,3.6856,3.683,3.6822,3.6778,3.6771,3.677,3.6755,3.676,3.6744,3.6738,3.6729,3.6713,3.6687,3.6669,3.6644,3.6591,3.6588,3.6566,3.6559,3.6553,3.6548,3.6521,3.6511,3.661,3.661,3.661,0,0,3.6827,3.6818,3.6801,3.6771,3.676,3.6732,3.6764,3.6733,3.6712,3.6733,3.6692,3.6685,3.6667,3.6619,3.6597,3.6611,3.652,3.6548,3.6544,3.6541,3.6515,3.6506,3.6498,3.6607,3.6608,3.6608,0,0,3.6761,3.6751,3.6715,3.6704,3.6688,3.6688,3.6679,3.6666,3.6663,3.6623,3.6639,3.6614,3.6568,3.6555,3.6543,3.6474,3.6487,3.6466,3.643,3.6403,3.6395,3.6388,3.6365,3.6356,3.6461,3.646,3.646,0,3.6726,3.6686,3.6694,3.6662,3.6649,3.6669,3.6632,3.6621,3.6597,3.6587,3.6603,3.6548,3.6537,3.6487,3.6471,3.646,3.645,3.6468,3.6396,3.6389,3.6383,3.6361,3.6352,3.6458,3.6458,3.6459,3.6459,0,3.6645,3.6617,3.6589,3.6568,3.6552,3.6517,3.652,3.6503,3.651,3.6508,3.6468,3.6456,3.643,3.6419,3.6424,3.637,3.6379,3.6395,3.6424,3.6371,3.635,3.6342,3.6455,3.6456,3.6456,3.6457,0,0,3.6553,3.6539,3.6529,3.652,3.6505,3.6483,3.6451,3.6427,3.6412,3.6396,3.6369,3.6331,3.6347,3.6333,3.6338,3.6314,3.6263,3.6334,3.6334,3.6322,3.6203,3.6192,3.6182,3.6271,3.627,3.6268,3.6205,0,3.6487,3.6431,3.6438,3.6385,3.636,3.6379,3.6351,3.6338,3.6336,3.6314,3.6312,3.6286,3.6308,3.63,3.6278,3.6274,3.6239,3.6278,3.6246,3.6245,3.6251,3.6171,3.6157,3.6098,3.6197,3.6196,3.6195,0,3.6402,3.6385,3.6329,3.632,3.631,3.6284,3.6264,3.6243,3.623,3.623,3.6216,3.6226,3.6193,3.6223,3.6178,3.6205,3.6192,3.6189,3.6187,3.6184,3.6217,3.6166,3.6079,3.6071,3.6182,3.6183,3.6184,0,3.6342,3.6304,3.6267,3.6259,3.6247,3.6229,3.6223,3.6212,3.6198,3.6181,3.6172,3.615,3.6138,3.6121,3.6125,3.6146,3.608,3.6109,3.608,3.608,3.6065,3.6065,3.5975,3.6056,3.6056,3.6056,3.6056,0,3.6268,3.6233,3.624,3.6217,3.618,3.6188,3.6151,3.6147,3.6137,3.6114,3.6129,3.6106,3.6112,3.609,3.6093,3.6057,3.6051,3.605,3.6051,3.6049,3.6049,3.6041,3.6045,3.6054,3.6054,3.6055,3.6055,0,3.6194,3.6198,3.6158,3.6151,3.6149,3.6121,3.6115,3.6094,3.6094,3.6064,3.6058,3.6057,3.6032,3.6035,3.6006,3.6008,3.5963,3.5969,3.5968,3.597,3.594,3.5943,3.5842,3.5829,3.5917,3.5916,3.5915,0,3.6147,3.6121,3.6112,3.6098,3.6092,3.6069,3.6055,3.6063,3.6049,3.6033,3.6014,3.599,3.5972,3.5931,3.5928,3.5907,3.5913,3.5879,3.5909,3.5909,3.5913,3.5915,3.5913,3.5872,3.5871,3.5871,3.587,0,3.6063,3.6067,3.6047,3.6029,3.6013,3.5998,3.5985,3.5973,3.598,3.5963,3.5938,3.5924,3.5897,3.5874,3.5854,3.5847,3.586,3.5861,3.5853,3.585,3.5851,3.5852,3.5952,3.5863,3.5863,3.5864,3.5864,3.5865,3.6002,3.5981,3.5972,3.595,3.5942,3.593,3.591,3.5908,3.5888,3.5867,3.5873,3.5846,3.5835,3.581,3.5802,3.578,3.5793,3.5781,3.5778,3.5775,3.5772,3.5855,3.5777,3.5777,3.5777,3.5777,3.5777,0,3.592,3.5916,3.5896,3.5878,3.5861,3.5876,3.5863,3.5848,3.5824,3.5813,3.5796,3.5768,3.5747,3.5743,3.5722,3.5706,3.5712,3.5701,3.5702,3.5701,3.5762,3.5771,3.5697,3.5697,3.5697,3.5697,3.5697,3.5697,3.5875,3.5841,3.5843,3.5805,3.5801,3.5775,3.5767,3.5756,3.5748,3.5717,3.57,3.5698,3.569,3.567,3.5651,3.565,3.5642,3.5629,3.5631,3.5688,3.5696,3.5704,3.5713,3.5627,3.5627,3.5572,3.5571,3.5571]}]]